Weather Roundup
Issued by NWS Chicago, IL

Home | Current Version | Previous Version | Graphics & Text | Print | Product List | Glossary On
Versions: 1 2 3 4 5 6 7 8 9 10 11 12 13 14 15 16 17 18 19 20 21 22 23 24 25 26 27 28 29 30 31 32 33 34 35 36 37 38 39 40 41 42 43 44 45 46 47 48 49 50
000
NZUS59 KLOT 211108
HRRLOT

CHICAGO AREA WEATHER ROUNDUP
NATIONAL WEATHER SERVICE CHICAGO/ROMEOVILLE IL
600 AM CDT MON AUG 21 2017

NOTE: "FAIR" INDICATES FEW OR NO CLOUDS BELOW 12,000 FEET WITH NO
SIGNIFICANT WEATHER AND/OR OBSTRUCTIONS TO VISIBILITY.

* THESE STATIONS ARE NOT UNDER NWS QUALITY CONTROL. THEY ALSO MAY NOT
  REPORT WEATHER SUCH AS PRECIPITATION OR FOG.

ILZ005-006-012>014-019>023-211200-
NORTHEAST ILLINOIS

CITY           SKY/WX    TMP DP  RH WIND       PRES   REMARKS
OHARE          CLOUDY    71  67  87 CALM      30.05R
MIDWAY         CLOUDY    73  68  84 S8        30.05R
AURORA         CLOUDY    69  68  96 S7        30.06R FOG
LANSING*       CLOUDY    69  66  88 S6        30.06R
JOLIET*        MOCLDY    67  67  99 CALM      30.06S FOG
WAUKEGAN       CLOUDY    68  68 100 CALM      30.05R
DUPAGE AIRPORT CLOUDY    69  69 100 S6        30.05R
WHEELING       CLOUDY    72  70  93 CALM      30.07R
MORRIS*        CLOUDY    67  66  96 CALM      30.05S FOG
LEWIS AIRPORT* CLOUDY    68  65  91 S6        30.06S
NORTHERLY ISL    N/A     72  66  81 SW9         N/A
$$

WIZ051-052-058>065-066-070>072-211200-
SOUTHEAST WISCONSIN

CITY           SKY/WX    TMP DP  RH WIND       PRES   REMARKS
MILWAUKEE      CLOUDY    70  67  90 NW3       30.05R
KENOSHA*       CLOUDY    69  67  93 S3        30.06R
RACINE*        CLOUDY    68  68 100 S5        30.07R
WAUKESHA       CLEAR     63  63 100 CALM      30.07R FOG
WEST BEND      CLOUDY    61  61 100 CALM      30.06S FOG
$$

INZ001>003-010>013-019-020-211200-
NORTHWEST INDIANA

CITY           SKY/WX    TMP DP  RH WIND       PRES   REMARKS
GARY*          PTCLDY    72  68  88 SE7       30.05S
MICHIGAN CITY* NOT AVBL
RENSSELAER*    NOT AVBL
VALPARAISO     CLOUDY    71  68  90 S5        30.08R
$$

LMZ740>746-211200-
SOUTHERN LAKE MICHIGAN

STATION/POSITION TIME  SKY/WX   TEMP WIND        PRES    VSBY
                                AIR  DIR/SP/G
                 (UTC)          (F)  (DEG/KT/KT) (MB)    (MI)
HARRISON CRIB    1040            74  190/ 17/ 20   N/A
BURNHAM HARBOR   NOT AVBL
CALUMET HARBOR   1048            72  180/  7/ 10 1017.0R
BURNS HARBOR     1040            72  180/  8/ 13 1018.3R
MICHIGAN CITY    1040            72  160/ 13/ 18   N/A
$$

ABBREVIATIONS USED IN REMARKS
   TC - TEMPERATURE IN CELSIUS
  WCI - WIND CHILL INDEX
   HX - HEAT INDEX
  VSB - VISIBILITY
$$




USA.gov is the U.S. government's official web portal to all federal, state and local government web resources and services.